Regional Weather Roundup
Issued by NWS

Home | Current Version | Previous Version | Graphics & Text | Print | Product List | Glossary On
Versions: 1 2 3 4 5 6 7 8 9 10 11 12 13 14 15 16 17 18 19 20 21 22 23 24 25 26 27 28 29 30 31 32 33 34 35 36 37 38 39 40 41 42 43 44 45 46 47 48 49 50
000
ASUS45 KCYS 220410
RWRWY

WYOMING REGIONAL WEATHER ROUNDUP
NATIONAL WEATHER SERVICE CHEYENNE WY
1000 PM MDT THU AUG 21 2014

NOTE:  "FAIR" INDICATES FEW OR NO CLOUDS BELOW 12,000 FEET
WITH NO SIGNIFICANT WEATHER AND/OR OBSTRUCTIONS TO VISIBILITY.

WYZ001-220500-
YELLOWSTONE NATIONAL PARK

CITY           SKY/WX    TMP DP  RH WIND       PRES   REMARKS
LK YELLOWSTONE   N/A     45  43  93 MISG      30.29S
W YELLOWSTONE  NOT AVBL

$$
WYZ002>013-054>058-071-098>099-220500-
NORTHERN WYOMING

CITY           SKY/WX    TMP DP  RH WIND       PRES   REMARKS
JACKSON        CLOUDY    54  52  94 S7        30.23R
CODY           MOCLDY    54  48  82 NE5       30.15S
GREYBULL       PTCLDY    62  50  64 NW14      30.07R
WORLAND        MOCLDY    64  47  53 NW15      30.09R
SHERIDAN       CLOUDY    59  54  83 NW14      30.12R
BUFFALO        CLOUDY    57  55  93 N14G26    30.14S
GILLETTE       CLOUDY    62  55  77 N14       30.10R
HULETT         CLOUDY    61  59  94 MISG      30.08  THUNDER
NEWCASTLE      TSTM      68  50  52 NE6       30.04

$$
WYZ014>020-022>026-101>103-220500-
CENTRAL WYOMING

CITY           SKY/WX    TMP DP  RH WIND       PRES   REMARKS
BIG PINEY      PTCLDY    51  46  83 NE6       30.24R
PINEDALE       MOCLDY    48  43  81 CALM      30.26R
DUBOIS         FAIR      50  41  71 W3        30.21S
LANDER         PTCLDY    64  40  41 W9G22     30.12R
RIVERTON       PTCLDY    63  47  55 N10       30.13R
CASPER         CLOUDY    64  45  49 SW16      30.12R
DOUGLAS        CLOUDY    69  44  40 W8        30.10S

$$
WYZ021-027>030-104>119-220500-
SOUTHERN WYOMING

CITY           SKY/WX    TMP DP  RH WIND       PRES   REMARKS
EVANSTON       PTCLDY    59  42  53 S5        30.21F
KEMMERER       PTCLDY    55  43  62 CALM      30.24S
FORT BRIDGER   FAIR      59  47  66 S7        30.25S
ROCK SPRINGS   PTCLDY    54  46  74 S7        30.23S
DIXON          FAIR      55  48  77 NE8       30.28S
RAWLINS        MOCLDY    54  45  71 CALM      30.25R
SARATOGA       FAIR      52  46  82 MISG      30.29R
LARAMIE        CLOUDY    54  45  71 N5        30.29R
CHEYENNE       CLOUDY    65  45  48 NW13G21   30.21R
TORRINGTON     MOCLDY    72  56  57 CALM      30.04R
PINE BLUFFS    FAIR      68  46  45 S9        30.12F

$$



USA.gov is the U.S. government's official web portal to all federal, state and local government web resources and services.